Regional Weather Roundup
Issued by NWS

Home | Current Version | Previous Version | Text Only | Print | Product List | Glossary Off
Versions: 1 2 3 4 5 6 7 8 9 10 11 12 13 14 15 16 17 18 19 20 21 22 23 24 25 26 27 28 29 30 31 32 33 34 35 36 37 38 39 40 41 42 43 44 45 46 47 48 49 50

000
ASUS43 KBIS 182320
RWRND

NORTH DAKOTA REGIONAL WEATHER ROUNDUP
NATIONAL WEATHER SERVICE BISMARCK ND
600 PM CDT FRI APR 18 2014

NOTE: "FAIR" INDICATES FEW OR NO CLOUDS BELOW 12,000 FEET WITH NO
SIGNIFICANT WEATHER AND/OR OBSTRUCTIONS TO VISIBILITY.


NDZ001>003-009>011-017-190000-
NORTHWEST NORTH DAKOTA

CITY           SKY/WX    TMP DP  RH WIND       PRES   REMARKS
WILLISTON      CLOUDY    55  35  47 SE12G24   29.66F
MINOT          CLOUDY    51  33  50 E25G39    29.74F
MINOT AFB      CLOUDY    51  35  52 SE25G32   29.74F
$$

NDZ018>021-031>035-040>046-190000-
SOUTHWEST NORTH DAKOTA

CITY           SKY/WX    TMP DP  RH WIND       PRES   REMARKS
BISMARCK       CLOUDY    65  40  39 SE28G36   29.69F
DICKINSON      CLOUDY    63  37  38 SE20      29.62S
GARRISON         N/A     54  37  52 SE22      29.68F
HETTINGER ARPT CLOUDY    65  39  38 SE14G22   29.61F
$$

NDZ004>008-012>016-024-026-027-054-190000-
NORTHEAST NORTH DAKOTA

CITY           SKY/WX    TMP DP  RH WIND       PRES   REMARKS
GRAND FORKS    CLOUDY    50  30  46 SE21      30.04F
GRND FRKS AFB  CLOUDY    50  29  45 SE23G33   30.03F
DEVILS LAKE    CLOUDY    45  28  53 SE25G33   29.89F
$$

NDZ022-023-025-028>030-036>039-047>053-190000-
SOUTHEAST NORTH DAKOTA

CITY           SKY/WX    TMP DP  RH WIND       PRES   REMARKS
FARGO          PTSUNNY   50  29  44 SE20G32   30.05F
JAMESTOWN      CLOUDY    48  34  58 SE31G44   29.87F
$$




USA.gov is the U.S. government's official web portal to all federal, state and local government web resources and services.